Nogales, AZ

4:06 AM MST on March 24, 2017 (GMT -0700)
Nogales International

Weather History for KOLS - February, 2013

Change the Weather History Date:

Wednesday, February 20, 2013

  Actual Average (KFHU) Record (KFHU)
Temperature  
Mean Temperature 38 °F -  
Max Temperature 44 °F 60 °F 76 °F (2016)
Min Temperature 32 °F 40 °F 27 °F (1984)
Degree Days  
Heating Degree Days 27    
Moisture  
Dew Point 31 °F    
Average Humidity 83    
Maximum Humidity 93    
Minimum Humidity 47    
Precipitation  
Precipitation 0.09 in - - ()
Sea Level Pressure  
Sea Level Pressure 29.77 in    
Wind  
Wind Speed 11 mph (SSW)    
Max Wind Speed 25 mph    
Max Gust Speed 38 mph    
Visibility 6 miles    
Events Fog , Rain , Snow    
Averages and records for this station are not official NWS values.
T = Trace of Precipitation, MM = Missing Value Source: NWS Daily Summary

Daily Weather History Graph

Daily Weather History Graph

Search for Another Location

Airport or City:

Trip Planner

Search our weather history database for the weather conditions in past years. The results will help you decide how hot, cold, wet, or windy it might be!

Date:

Astronomy

Feb. 20, 2013 Rise Set
Actual Time 6:59 AM MST 6:14 PM MST
Civil Twilight 6:35 AM MST 6:39 PM MST
Nautical Twilight 6:06 AM MST 7:07 PM MST
Astronomical Twilight 5:38 AM MST 7:36 PM MST
Moon 1:50 PM MST (2/20) 3:11 AM MST (2/20)
Length of Visible Light 12h 04m
Length of Day
11h 15m
Waxing Gibbous, 76% of the Moon is Illuminated
Feb 20
Waxing Gibbous
Feb 25
Full
Mar 4
Last Quarter
Mar 11
New
Mar 19
First Quarter

Hourly Weather History & Observations

Time (MST) Temp. Windchill Dew Point Humidity Pressure Visibility Wind Dir Wind Speed Gust Speed Precip Events Conditions
12:54 AM 44.1 °F 37.7 °F 25.0 °F 47% 29.66 in 10.0 mi South 12.7 mph - N/A   Clear
2:54 AM 43.0 °F 37.7 °F 30.0 °F 60% 29.65 in 10.0 mi SSW 9.2 mph - N/A   Overcast
3:22 AM 43.0 °F 38.8 °F 30.9 °F 62% 29.76 in 10.0 mi South 6.9 mph - N/A   Overcast
3:35 AM 43.0 °F 37.2 °F 30.9 °F 62% 29.75 in 10.0 mi South 10.4 mph - N/A   Overcast
3:43 AM 43.0 °F 36.8 °F 32.0 °F 65% 29.75 in 10.0 mi South 11.5 mph - N/A   Overcast
3:54 AM 43.0 °F 35.7 °F 32.0 °F 65% 29.64 in 10.0 mi South 15.0 mph 25.3 mph N/A   Mostly Cloudy
4:07 AM 43.0 °F 36.4 °F 32.0 °F 65% 29.74 in 10.0 mi South 12.7 mph 23.0 mph N/A   Mostly Cloudy
4:54 AM 42.1 °F 35.7 °F 30.9 °F 65% 29.64 in 10.0 mi SW 11.5 mph - N/A   Overcast
5:54 AM 41.0 °F 34.3 °F 30.0 °F 65% 29.65 in 10.0 mi SSW 11.5 mph - N/A   Mostly Cloudy
6:54 AM 41.0 °F 33.5 °F 28.9 °F 62% 29.66 in 10.0 mi South 13.8 mph - N/A   Overcast
7:19 AM 39.9 °F 30.8 °F 30.9 °F 70% 29.75 in 10.0 mi South 18.4 mph 23.0 mph 0.00 in Rain Light Rain
7:35 AM 39.0 °F 31.0 °F 32.0 °F 76% 29.75 in 10.0 mi SSW 13.8 mph - 0.00 in Rain Light Rain
7:49 AM 37.4 °F 29.8 °F 32.0 °F 81% 29.76 in 10.0 mi South 11.5 mph 21.9 mph 0.00 in Rain Light Rain
7:54 AM 39.2 °F 30.8 °F 32.0 °F 75% 29.76 in 10.0 mi South 15.0 mph - N/A   Overcast
8:14 AM 39.0 °F 31.4 °F 33.1 °F 79% 29.76 in 9.0 mi SSW 12.7 mph - 0.00 in Rain Light Rain
8:54 AM 37.9 °F 30.9 °F 34.0 °F 86% 29.70 in 5.0 mi South 10.4 mph - 0.00 in Rain Light Rain
8:59 AM 37.9 °F 30.5 °F 35.1 °F 89% 29.77 in 7.0 mi South 11.5 mph - 0.00 in Rain Light Rain
9:24 AM 39.9 °F 32.9 °F 36.0 °F 86% 29.76 in 10.0 mi South 11.5 mph - 0.01 in   Overcast
9:39 AM 39.0 °F 29.0 °F 35.1 °F 86% 29.76 in 5.0 mi South 20.7 mph 27.6 mph 0.01 in Rain Light Rain
9:54 AM 39.9 °F 32.1 °F 34.0 °F 79% 29.68 in 10.0 mi South 13.8 mph - 0.01 in Rain Light Rain
10:54 AM 41.0 °F 31.6 °F 35.1 °F 79% 29.68 in 10.0 mi South 20.7 mph - 0.02 in Rain Light Rain
11:36 AM 42.1 °F 33.6 °F 36.0 °F 79% 29.73 in 10.0 mi South 18.4 mph - 0.02 in Rain Light Rain
11:54 AM 44.1 °F 35.9 °F 37.0 °F 76% 29.65 in 10.0 mi South 19.6 mph 26.5 mph 0.02 in   Overcast
12:04 PM 44.1 °F 35.0 °F 37.0 °F 76% 29.70 in 10.0 mi South 24.2 mph 31.1 mph 0.00 in Rain Light Rain
12:19 PM 44.1 °F 35.4 °F 37.0 °F 76% 29.71 in 8.0 mi South 21.9 mph 29.9 mph 0.00 in Rain Light Rain
12:28 PM 44.1 °F 34.8 °F 37.0 °F 76% 29.70 in 10.0 mi South 25.3 mph 33.4 mph 0.00 in Rain Light Rain
12:35 PM 44.1 °F 34.8 °F 37.0 °F 76% 29.70 in 10.0 mi SSW 25.3 mph 33.4 mph 0.00 in   Overcast
12:54 PM 34.0 °F 23.0 °F 30.0 °F 85% 29.70 in 1.5 mi WNW 18.4 mph 38.0 mph 0.00 in Snow Light Snow
12:56 PM 33.1 °F 20.6 °F 28.9 °F 85% 29.74 in 0.8 mi WNW 23.0 mph 38.0 mph 0.00 in Snow Light Snow
12:59 PM 33.1 °F 22.6 °F 28.9 °F 85% 29.74 in 0.2 mi WNW 16.1 mph 32.2 mph 0.00 in Fog , Snow Snow
1:20 PM 32.0 °F 23.0 °F 30.0 °F 92% 29.75 in 0.5 mi WNW 11.5 mph 21.9 mph 0.00 in Fog , Snow Snow
1:37 PM 32.0 °F 25.6 °F 30.0 °F 92% 29.75 in 0.5 mi WNW 6.9 mph - 0.00 in Fog , Snow Snow
1:49 PM 32.0 °F 24.2 °F 30.2 °F 93% 29.76 in 0.5 mi West 9.2 mph 17.3 mph 0.01 in Fog , Snow Light Snow
1:54 PM 32.0 °F 24.2 °F 30.0 °F 92% 29.73 in 0.5 mi West 9.2 mph - 0.01 in Fog , Snow Snow
2:01 PM 32.0 °F 25.6 °F 30.0 °F 92% 29.76 in 1.0 mi West 6.9 mph - 0.00 in Snow Light Snow
2:12 PM 32.0 °F 26.4 °F 30.0 °F 92% 29.76 in 0.8 mi WNW 5.8 mph - 0.00 in Snow Light Snow
2:31 PM 32.0 °F 27.5 °F 30.0 °F 92% 29.77 in 0.5 mi WNW 4.6 mph - 0.00 in Fog , Snow Snow
2:41 PM 32.0 °F 26.4 °F 30.0 °F 92% 29.75 in 0.5 mi NNW 5.8 mph - 0.00 in Fog , Snow Snow
2:54 PM 32.0 °F 28.7 °F 30.2 °F 93% 29.75 in 0.5 mi NNW 3.5 mph - N/A Fog , Snow Snow
2:59 PM 32.0 °F - 30.0 °F 92% 29.75 in 1.0 mi Calm Calm - 0.00 in Snow Light Snow
3:02 PM 33.1 °F - 30.0 °F 89% 29.75 in 2.0 mi Calm Calm - 0.00 in Snow Light Snow
3:12 PM 33.1 °F - 28.9 °F 85% 29.75 in 3.0 mi Calm Calm - 0.00 in Snow Light Snow
3:16 PM 33.1 °F - 28.9 °F 85% 29.75 in 5.0 mi Calm Calm - 0.00 in Snow Light Snow
3:24 PM 33.1 °F - 30.0 °F 89% 29.75 in 9.0 mi Calm Calm - 0.00 in   Overcast
3:54 PM 33.1 °F 27.7 °F 30.0 °F 89% 29.72 in 4.0 mi South 5.8 mph - 0.01 in Snow Light Snow
4:05 PM 34.0 °F 27.2 °F 30.9 °F 89% 29.77 in 2.5 mi SW 8.1 mph - 0.00 in Snow Light Snow
4:11 PM 33.1 °F 26.9 °F 30.0 °F 89% 29.78 in 0.8 mi SSW 6.9 mph - 0.00 in Snow Light Snow
4:18 PM 33.1 °F 26.1 °F 30.0 °F 89% 29.78 in 1.0 mi WSW 8.1 mph - 0.00 in Snow Light Snow
4:31 PM 33.1 °F 26.9 °F 30.9 °F 92% 29.78 in 2.0 mi South 6.9 mph - 0.00 in Snow Light Snow
4:50 PM 33.8 °F 28.6 °F 30.2 °F 87% 29.77 in 3.0 mi SSE 5.8 mph - 0.00 in Snow Light Snow
4:54 PM 34.0 °F 27.2 °F 30.9 °F 89% 29.74 in 4.0 mi SSE 8.1 mph - 0.00 in Snow Light Snow
5:30 PM 34.0 °F 27.2 °F 30.9 °F 89% 29.77 in 10.0 mi SSE 8.1 mph - 0.01 in   Overcast
5:37 PM 34.0 °F 26.6 °F 30.9 °F 89% 29.77 in 10.0 mi SSE 9.2 mph - 0.01 in   Overcast
5:54 PM 34.0 °F 26.6 °F 30.9 °F 89% 29.75 in 7.0 mi SSE 9.2 mph - 0.01 in Snow Light Snow
6:12 PM 34.0 °F 26.6 °F 30.9 °F 89% 29.79 in 4.0 mi South 9.2 mph - 0.00 in Snow Light Snow
6:28 PM 34.0 °F 28.0 °F 32.0 °F 92% 29.79 in 8.0 mi South 6.9 mph - 0.00 in Snow Light Snow
6:37 PM 34.0 °F 28.8 °F 30.9 °F 89% 29.80 in 5.0 mi South 5.8 mph - 0.00 in Snow Light Snow
6:47 PM 33.1 °F 28.7 °F 30.9 °F 92% 29.80 in 2.0 mi South 4.6 mph - 0.00 in Snow Light Snow
6:54 PM 33.1 °F 27.7 °F 30.9 °F 92% 29.78 in 3.0 mi South 5.8 mph - 0.00 in Snow Light Snow
7:18 PM 34.0 °F 28.8 °F 32.0 °F 92% 29.82 in 6.0 mi South 5.8 mph - 0.00 in Snow Light Snow
7:43 PM 34.0 °F 28.8 °F 30.9 °F 89% 29.83 in 4.0 mi WSW 5.8 mph - 0.00 in Snow Light Snow
7:54 PM 34.0 °F 28.8 °F 30.9 °F 89% 29.81 in 2.5 mi WSW 5.8 mph - 0.00 in Snow Light Snow
8:11 PM 33.8 °F 27.7 °F 30.2 °F 87% 29.85 in 2.5 mi West 6.9 mph - N/A Snow Light Snow
8:22 PM 33.1 °F 28.7 °F 30.9 °F 92% 29.85 in 3.0 mi West 4.6 mph - 0.01 in Snow Light Snow
8:31 PM 33.1 °F 30.0 °F 30.9 °F 92% 29.85 in 4.0 mi WSW 3.5 mph - 0.01 in Snow Light Snow
8:52 PM 33.8 °F - 32.0 °F 93% 29.87 in 6.0 mi Calm Calm - 0.01 in Snow Light Snow
8:54 PM 34.0 °F - 30.9 °F 89% 29.85 in 9.0 mi Calm Calm - 0.01 in   Overcast
9:07 PM 34.0 °F - 30.9 °F 89% 29.87 in 4.0 mi Calm Calm - 0.00 in Snow Light Snow
9:26 PM 34.0 °F 29.8 °F 30.9 °F 89% 29.88 in 10.0 mi ESE 4.6 mph - 0.00 in   Overcast
9:54 PM 34.0 °F - 30.0 °F 85% 29.88 in 10.0 mi Calm Calm - 0.00 in   Overcast
10:07 PM 34.0 °F 31.0 °F 30.0 °F 85% 29.90 in 10.0 mi South 3.5 mph - N/A   Overcast
10:21 PM 34.0 °F 27.2 °F 30.0 °F 85% 29.91 in 10.0 mi SSW 8.1 mph - N/A   Overcast
10:54 PM 34.0 °F 27.2 °F 30.0 °F 85% 29.89 in 10.0 mi SW 8.1 mph - N/A   Mostly Cloudy
11:06 PM 33.1 °F 26.9 °F 28.9 °F 85% 29.91 in 10.0 mi SW 6.9 mph - N/A   Scattered Clouds
11:54 PM 32.0 °F 27.5 °F 28.0 °F 85% 29.90 in 10.0 mi South 4.6 mph - N/A   Partly Cloudy